Location: Marcé
(47.5801°N, 0.3280°W)
Time: 18:22:42
(UTC+01:00)

Tiros 1 - Pass Details

Date: 06 December 2021
Orbit: 629 x 664 km, 48.4° (Epoch: 26 January)

Event Time Altitude Azimuth Distance (km) Brightness Sun altitude
Rises 01:17:48 0° 284° (WNW) 2,959 - -64.4°
Reaches altitude 10° 01:20:36 10° 268° (W) 2,052 - -64.3°
Maximum altitude 01:24:06 21° 220° (SW) 1,466 - -64.1°
Drops below altitude 10° 01:27:38 10° 172° (S) 2,059 - -63.9°
Sets 01:30:27 0° 156° (SSE) 2,973 - -63.8°
